Terminal Aerodrome Forecast
Issued by NWS Dallas/Fort Worth, TX

Home | Current Version | Previous Version | Text Only | Print | Product List | Glossary On
Versions: 1 2 3 4 5 6 7 8 9 10 11 12 13 14 15 16 17 18 19 20 21 22 23 24 25 26 27 28 29 30 31
000
FTUS44 KFWD 181100
TAFACT
TAF
KACT 181136Z 1812/1912 16006KT P6SM OVC014
     FM181900 18006KT 5SM -TSRA BKN030CB
     FM190000 15004KT P6SM SCT060 BKN120
     FM190900 14008KT P6SM BKN015=

USA.gov is the U.S. government's official web portal to all federal, state and local government web resources and services.